Weather History for Romeoville, IL

Change the Weather History Date:

Tuesday, October 1, 2013

  Actual Average Record
Temperature  
Mean Temperature 69 °F 59 °F  
Max Temperature 79 °F 69 °F 83 °F (2002)
Min Temperature 59 °F 48 °F 32 °F (2003)
Degree Days  
Heating Degree Days 0 8  
Month to date heating degree days 0 8  
Since 1 July heating degree days 72 107  
Cooling Degree Days 4 1  
Month to date cooling degree days 4 1  
Year to date cooling degree days 924 848  
Growing Degree Days 18 (Base 50)    
Moisture  
Dew Point 61 °F    
Average Humidity 79    
Maximum Humidity 96    
Minimum Humidity 51    
Precipitation  
Precipitation 0.00 in 0.11 in 0.63 in (2004)
Month to date precipitation 0.00 0.11  
Year to date precipitation 30.89 31.06  
Sea Level Pressure  
Sea Level Pressure 29.95 in    
Wind  
Wind Speed 9 mph (SW)    
Max Wind Speed 18 mph    
Max Gust Speed 23 mph    
Visibility 8 miles    
Events      
T = Trace of Precipitation, MM = Missing Value Source: NWS Daily Summary

Daily Weather History Graph

Daily Weather History Graph

Search for Another Location

Airport:

Trip Planner

Search our weather history database for the weather conditions in past years. The results will help you decide how hot, cold, wet, or windy it might be!

Date:

Astronomy

Oct. 01, 2013 Rise Set
Actual Time 6:49 AM CDT 6:33 PM CDT
Civil Twilight 6:21 AM CDT 7:01 PM CDT
Nautical Twilight 5:49 AM CDT 7:33 PM CDT
Astronomical Twilight 5:17 AM CDT 8:05 PM CDT
Moon 3:21 AM CDT (10/1) 4:39 PM CDT (10/1)
Length of Visible Light 12h 39m
Length of Day
11h 44m
Waning Crescent, 12% of the Moon is Illuminated
Oct 1
Waning Crescent
Oct 4
New
Oct 11
First Quarter
Oct 18
Full
Oct 26
Last Quarter

Hourly Weather History & Observations

Time (CDT) Temp. Dew Point Humidity Pressure Visibility Wind Dir Wind Speed Gust Speed Precip Events Conditions
12:15 AM 56.7 °F 52.2 °F 85% 29.91 in 10.0 mi South 5.8 mph - N/A   Clear
12:35 AM 58.1 °F 53.8 °F 86% 29.91 in 10.0 mi SSW 6.9 mph - N/A   Clear
12:55 AM 57.7 °F 53.8 °F 87% 29.92 in 10.0 mi SSW 6.9 mph - N/A   Clear
1:15 AM 58.5 °F 55.0 °F 88% 29.92 in 10.0 mi SSW 6.9 mph - N/A   Clear
1:35 AM 59.4 °F 56.3 °F 90% 29.93 in 10.0 mi SSW 5.8 mph - N/A   Clear
1:55 AM 59.9 °F 57.2 °F 91% 29.93 in 10.0 mi SSW 6.9 mph - N/A   Clear
2:15 AM 59.9 °F 57.4 °F 91% 29.93 in 10.0 mi SSW 8.1 mph - N/A   Clear
2:35 AM 60.3 °F 58.1 °F 93% 29.93 in 10.0 mi SSW 6.9 mph - N/A   Clear
2:55 AM 61.0 °F 59.2 °F 94% 29.93 in 7.0 mi SSW 8.1 mph - N/A   Clear
3:15 AM 61.2 °F 59.4 °F 94% 29.93 in 7.0 mi SSW 6.9 mph - N/A   Clear
3:35 AM 60.8 °F 59.2 °F 94% 29.93 in 7.0 mi SSW 6.9 mph - N/A   Clear
3:55 AM 60.4 °F 59.0 °F 95% 29.93 in 5.0 mi SW 6.9 mph - N/A   Scattered Clouds
4:15 AM 61.0 °F 59.9 °F 96% 29.93 in 5.0 mi SSW 6.9 mph - N/A   Mostly Cloudy
4:35 AM 61.7 °F 60.4 °F 96% 29.94 in 5.0 mi SSW 9.2 mph - N/A   Overcast
4:55 AM 61.7 °F 60.3 °F 95% 29.94 in 5.0 mi SW 8.1 mph - N/A   Overcast
5:15 AM 61.7 °F 60.4 °F 96% 29.95 in 5.0 mi SW 8.1 mph - N/A   Overcast
5:35 AM 61.7 °F 60.6 °F 96% 29.96 in 5.0 mi SSW 6.9 mph - N/A   Overcast
5:55 AM 61.9 °F 60.8 °F 96% 29.96 in 5.0 mi SSW 10.4 mph - N/A   Overcast
6:15 AM 62.6 °F 61.3 °F 96% 29.96 in 5.0 mi SSW 11.5 mph - N/A   Overcast
6:35 AM 63.1 °F 61.7 °F 95% 29.96 in 5.0 mi SSW 10.4 mph - N/A   Overcast
6:55 AM 63.7 °F 61.9 °F 94% 29.96 in 5.0 mi SW 10.4 mph - N/A   Overcast
7:15 AM 64.0 °F 62.1 °F 93% 29.96 in 5.0 mi SW 10.4 mph - N/A   Overcast
7:35 AM 64.4 °F 62.1 °F 92% 29.97 in 5.0 mi SW 11.5 mph - N/A   Overcast
7:55 AM 64.6 °F 62.1 °F 92% 29.97 in 5.0 mi SW 9.2 mph - N/A   Overcast
8:15 AM 64.9 °F 62.1 °F 90% 29.97 in 5.0 mi SW 11.5 mph 16.1 mph N/A   Overcast
8:35 AM 65.3 °F 62.2 °F 90% 29.98 in 7.0 mi SW 10.4 mph 18.4 mph N/A   Overcast
8:55 AM 65.5 °F 62.1 °F 89% 29.98 in 7.0 mi SW 11.5 mph 17.3 mph N/A   Overcast
9:15 AM 65.8 °F 62.2 °F 88% 29.98 in 7.0 mi SW 13.8 mph 18.4 mph N/A   Overcast
9:35 AM 66.4 °F 62.1 °F 86% 29.97 in 7.0 mi SW 13.8 mph 23.0 mph N/A   Overcast
9:55 AM 66.9 °F 62.2 °F 85% 29.98 in 7.0 mi WSW 11.5 mph 19.6 mph N/A   Overcast
10:15 AM 67.3 °F 62.1 °F 83% 29.98 in 10.0 mi SW 13.8 mph 21.9 mph N/A   Overcast
10:35 AM 67.6 °F 62.1 °F 82% 29.98 in 10.0 mi SW 12.7 mph - N/A   Overcast
10:55 AM 68.0 °F 62.1 °F 81% 29.98 in 10.0 mi SW 10.4 mph 19.6 mph N/A   Overcast
11:15 AM 68.2 °F 62.2 °F 81% 29.98 in 10.0 mi SW 12.7 mph - N/A   Overcast
11:35 AM 68.5 °F 62.4 °F 81% 29.97 in 10.0 mi SW 11.5 mph 16.1 mph N/A   Overcast
11:55 AM 68.4 °F 62.4 °F 81% 29.97 in 7.0 mi SW 12.7 mph 19.6 mph N/A   Overcast
12:15 PM 68.9 °F 62.6 °F 80% 29.97 in 7.0 mi SW 12.7 mph 19.6 mph N/A   Overcast
12:35 PM 70.7 °F 62.1 °F 74% 29.97 in 10.0 mi SW 11.5 mph 17.3 mph N/A   Overcast
12:55 PM 71.8 °F 62.1 °F 71% 29.96 in 10.0 mi SW 16.1 mph 19.6 mph N/A   Overcast
1:15 PM 72.3 °F 61.7 °F 69% 29.96 in 10.0 mi SW 12.7 mph 18.4 mph N/A   Overcast
1:35 PM 73.0 °F 61.7 °F 67% 29.95 in 10.0 mi SSW 13.8 mph 17.3 mph N/A   Overcast
1:55 PM 73.8 °F 61.7 °F 66% 29.94 in 10.0 mi SSW 17.3 mph 20.7 mph N/A   Mostly Cloudy
2:15 PM 75.0 °F 61.5 °F 63% 29.93 in 10.0 mi SSW 16.1 mph 20.7 mph N/A   Scattered Clouds
2:35 PM 75.7 °F 61.9 °F 62% 29.92 in 10.0 mi SSW 16.1 mph - N/A   Scattered Clouds
2:55 PM 76.6 °F 61.2 °F 59% 29.92 in 10.0 mi SSW 17.3 mph 23.0 mph N/A   Mostly Cloudy
3:15 PM 76.5 °F 61.0 °F 59% 29.92 in 10.0 mi SSW 15.0 mph 21.9 mph N/A   Mostly Cloudy
3:35 PM 78.1 °F 60.3 °F 54% 29.91 in 10.0 mi SW 12.7 mph - N/A   Scattered Clouds
3:55 PM 78.8 °F 59.7 °F 52% 29.91 in 10.0 mi SW 18.4 mph 23.0 mph N/A   Scattered Clouds
4:15 PM 79.0 °F 59.5 °F 51% 29.91 in 10.0 mi SW 11.5 mph 20.7 mph N/A   Clear
4:35 PM 79.0 °F 59.5 °F 51% 29.91 in 10.0 mi WSW 15.0 mph 18.4 mph N/A   Clear
4:55 PM 78.6 °F 59.9 °F 52% 29.91 in 10.0 mi SW 15.0 mph - N/A   Clear
5:15 PM 78.4 °F 60.4 °F 54% 29.91 in 10.0 mi SW 12.7 mph - N/A   Clear
5:35 PM 78.3 °F 59.7 °F 53% 29.92 in 10.0 mi WSW 12.7 mph 17.3 mph N/A   Clear
5:55 PM 77.5 °F 59.0 °F 53% 29.92 in 10.0 mi WSW 11.5 mph 16.1 mph N/A   Clear
6:15 PM 76.5 °F 59.2 °F 55% 29.92 in 10.0 mi WSW 6.9 mph - N/A   Clear
6:35 PM 75.4 °F 59.5 °F 58% 29.93 in 10.0 mi WSW 5.8 mph - N/A   Clear
6:55 PM 72.7 °F 59.9 °F 64% 29.93 in 10.0 mi West 5.8 mph - N/A   Clear
7:15 PM 70.3 °F 59.9 °F 69% 29.94 in 10.0 mi WSW 5.8 mph - N/A   Clear
7:35 PM 70.0 °F 59.7 °F 70% 29.94 in 10.0 mi SW 5.8 mph - N/A   Clear
7:55 PM 68.2 °F 59.9 °F 75% 29.95 in 10.0 mi SW 5.8 mph - N/A   Clear
8:15 PM 68.2 °F 59.9 °F 75% 29.96 in 10.0 mi SSW 5.8 mph - N/A   Clear
8:35 PM 66.7 °F 59.4 °F 77% 29.96 in 10.0 mi SW 6.9 mph - N/A   Clear
8:55 PM 67.6 °F 60.1 °F 77% 29.96 in 10.0 mi SW 6.9 mph - N/A   Clear
9:15 PM 67.3 °F 60.6 °F 79% 29.96 in 10.0 mi SW 6.9 mph - N/A   Clear
9:35 PM 68.4 °F 61.3 °F 78% 29.96 in 10.0 mi SW 5.8 mph - N/A   Clear
9:55 PM 68.2 °F 61.7 °F 80% 29.97 in 10.0 mi SW 8.1 mph - N/A   Clear
10:15 PM 68.0 °F 62.1 °F 81% 29.97 in 10.0 mi SW 9.2 mph - N/A   Clear
10:35 PM 68.0 °F 63.0 °F 84% 29.97 in 7.0 mi SW 9.2 mph - N/A   Clear
10:55 PM 67.8 °F 63.5 °F 86% 29.98 in 7.0 mi SW 8.1 mph - N/A   Clear
11:15 PM 67.3 °F 64.2 °F 90% 29.98 in 5.0 mi SW 6.9 mph - N/A   Clear
11:35 PM 67.1 °F 64.4 °F 91% 29.98 in 5.0 mi SW 8.1 mph - N/A   Clear
11:55 PM 67.1 °F 64.4 °F 91% 29.98 in 5.0 mi SW 6.9 mph - N/A   Scattered Clouds